Вернуться в каталог

HIPPARCOS

АктивенНаукаGTO
NORAD 20169·PAYLOAD·🇪🇺 EU

Запущен Aug 8, 1989 с Guiana Space Centre

Loading…

TLE

УстаревающийSource: Space-Track

Эпоха: Sep 14, 2026, 04:15 UTC

1 20169U 89062B   26257.17762866 -.00000044  00000-0  86910-3 0  9994
2 20169   6.8371 287.1015 7190170  49.2868 353.8352  2.26417982271371

Отслеживайте HIPPARCOS в реальном времени с AllMySat

Download on the App Store